Tracking 18840 objects as of 19-November-2017
HD Live streaming from Space Station
objects crossing your sky now

OV1-4

Track OV1-4 now!
10-day predictions
OV1-4 is classified as:


NORAD ID: 2121
Int'l Code: 1966-025A
Perigee: 885.3 km
Apogee: 1,008.1 km
Inclination: 144.5 °
Period: 103.8 minutes
Semi major axis: 7317 km
RCS: 0.5201 m2 (medium)
Launch date: March 30, 1966
Source: United States (US)
Launch site: AIR FORCE WESTERN TEST RANGE (AFWTR)
aabbcc
Your satellite tracking list
Your tracking list is empty




NASA's NSSDC Master Catalog

Two Line Element Set (TLE):
1 02121U 66025A   17323.35285123  .00000251  00000-0 -14197-4 0  9995
2 02121 144.5028 108.0457 0083893 339.7721  19.9658 13.86887447616546
Source of the keplerian elements: AFSPC